This demonstration page uses our WeatherBlox Daily Observations layout. Learn more.

Left ArrowRight Arrow

39.29038, -76.61219

Hourly Observations for November 12, 2018

Temp ( °F °C ) Dew Point ( °F °C ) Humidity (%) Winds ( mph kmh ) Pressure ( in mb ) Visibility ( mi km ) Precip ( " mm )
12:54 am 00:54 undefined 37 2.8 28 -2.2 70 70 undefined N/A 30.38 1029 N/A 0.00 0.00
1:54 am 01:54 undefined 37 2.8 27 -2.8 67 67 undefined N/A 30.38 1029 N/A 0.00 0.00
2:54 am 02:54 undefined 39 3.9 26 -3.3 60 60 undefined N/A 30.40 1030 N/A 0.00 0.00
3:54 am 03:54 undefined 39 3.9 25 -3.9 57 57 undefined N/A 30.40 1030 N/A 0.00 0.00
4:54 am 04:54 undefined 40 4.4 29 -1.7 65 65 undefined N/A 30.41 1030 N/A 0.00 0.00
5:54 am 05:54 undefined 40 4.4 30 -1.1 68 68 undefined N/A 30.42 1030 N/A 0.00 0.00
6:54 am 06:54 undefined 40 4.4 32 0 73 73 undefined N/A 30.41 1030 N/A 0.00 0.00
7:54 am 07:54 undefined 41 5 33 0.6 73 73 undefined N/A 30.41 1030 N/A 0.00 0.00
8:54 am 08:54 undefined 43 6.1 33 0.6 68 68 undefined N/A 30.43 1031 N/A 0.00 0.00
9:54 am 09:54 undefined 44 6.7 33 0.6 65 65 undefined N/A 30.45 1031 N/A 0.00 0.00
10:54 am 10:54 undefined 46 7.8 33 0.6 61 61 undefined N/A 30.45 1031 N/A 0.00 0.00
11:54 am 11:54 undefined 47 8.3 35 1.7 63 63 undefined N/A 30.40 1029 N/A 0.00 0.00
12:54 pm 12:54 undefined 48 8.9 35 1.7 61 61 undefined N/A 30.37 1028 N/A 0.00 0.00
1:54 pm 13:54 undefined 48 8.9 35 1.7 61 61 undefined N/A 30.34 1027 N/A 0.00 0.00
2:54 pm 14:54 undefined 48 8.9 34 1.1 58 58 undefined N/A 30.33 1027 N/A 0.00 0.00
3:54 pm 15:54 undefined 48 8.9 34 1.1 58 58 undefined N/A 30.35 1028 N/A 0.00 0.00
4:54 pm 16:54 undefined 48 8.9 35 1.7 61 61 undefined N/A 30.34 1027 N/A 0.00 0.00
5:54 pm 17:54 undefined 47 8.3 35 1.7 63 63 undefined N/A 30.32 1027 N/A 0.00 0.00
6:54 pm 18:54 undefined 46 7.8 37 2.8 71 71 undefined N/A 30.31 1026 N/A 0.01 0.25
7:54 pm 19:54 undefined 44 6.7 38 3.3 79 79 undefined N/A 30.30 1026 N/A 0.07 1.78
8:54 pm 20:54 undefined 43 6.1 38 3.3 82 82 undefined N/A 30.27 1025 N/A 0.06 1.52
9:54 pm 21:54 undefined 43 6.1 39 3.9 86 86 undefined N/A 30.26 1025 N/A 0.06 1.52
10:54 pm 22:54 undefined 43 6.1 39 3.9 86 86 undefined N/A 30.24 1024 N/A 0.07 1.78
11:54 pm 23:54 undefined 44 6.7 40 4.4 85 85 undefined N/A 30.21 1023 N/A 0.10 2.54

Powered by AerisWeather